Location: Moscow
(55.7500°N, 37.5830°E)
Time: 12:32:17
(UTC+03:00)

S-56A Canister/Altair - Pass Details

Date: 30 November 2021
Orbit: 633 x 2499 km, 38.9° (Epoch: 17 January)

Event Time Altitude Azimuth Distance (km) Brightness Sun altitude
Rises 02:25:42 0° 222° (SW) 4,185 - -48.5°
Reaches altitude 10° 02:30:43 10° 196° (SSW) 2,794 - -48.0°
Maximum altitude 02:33:20 13° 172° (S) 2,400 - -47.7°
Drops below altitude 10° 02:35:41 10° 147° (SSE) 2,419 - -47.4°
Sets 02:39:20 0° 118° (ESE) 3,122 - -47.0°
